Regional Weather Roundup
Issued by NWS Cleveland, OH

Home | Current Version | Previous Version | Text Only | Print | Product List | Glossary Off
Versions: 1 2 3 4 5 6 7 8 9 10 11 12 13 14 15 16 17 18 19 20 21 22 23 24 25 26 27 28 29 30 31 32 33 34 35 36 37 38 39 40 41 42 43 44 45 46 47 48 49 50

000
ASUS41 KCLE 281102
RWRCLE
OHIO REGIONAL WEATHER ROUNDUP
NATIONAL WEATHER SERVICE CLEVELAND, OH
700 AM EDT FRI JUL 28 2017

NOTE: "FAIR" INDICATES FEW OR NO CLOUDS BELOW 12,000 FEET WITH NO
SIGNIFICANT WEATHER AND/OR OBSTRUCTIONS TO VISIBILITY.

OHZ001>008-015>018-024>027-034-035-043-044-281200-
   NORTHWEST OHIO

CITY           SKY/WX    TMP DP  RH WIND       PRES   REMARKS
DEFIANCE       PTCLDY    64  59  83 NE5       29.92S
FINDLAY        CLOUDY    68  63  84 NE8       29.89S
TOLEDO EXPRESS CLOUDY    62  61  96 N6        29.91S
TOLEDO EXEC    MOCLDY    65  63  93 NW5       29.91S
LIMA           CLOUDY    65  65 100 N7        29.90S
$$

OHZ009>014-019>023-028>033-038-089-281200-
   NORTHEAST OHIO

CITY           SKY/WX    TMP DP  RH WIND       PRES   REMARKS
CLE-HOPKINS    MOCLDY    69  65  86 CALM      29.90R
CLE-LAKEFRONT  MOCLDY    71  66  84 NE3       29.87R
CUY CO. ARPT   MOCLDY    66  64  94 CALM      29.89
LORAIN-ELYRIA  CLOUDY    67  62  84 N3        29.89S
ASHTABULA      CLOUDY    65  65 100 NE3       29.90R FOG
AKRON-CANTON   CLOUDY    67  63  87 N8        29.88R
WOOSTER        CLOUDY    67  66  97 N8        29.89S FOG
MANSFIELD      CLOUDY    66  66 100 N8        29.90R FOG
YOUNGSTOWN     CLOUDY    66  63  90 NE6       29.88R
$$

OHZ042-051>053-060>062-070>072-077>081-281200-
  SOUTHWEST OHIO

CITY           SKY/WX    TMP DP  RH WIND       PRES   REMARKS
CINC-COVINGTON LGT RAIN  73  73 100 CALM      29.84S FOG
CINC-LUNKEN    LGT RAIN  74  73  97 NE7       29.84S
HAMILTON       CLOUDY    73  71  93 NE3       29.86R
DAYTON         CLOUDY    69  67  93 NE12      29.89R FOG
WRIGHT-PAT AFB NOT AVBL
DAYTON GENERAL CLOUDY    71  69  93 NE9       29.86R FOG
WILMINGTON     CLOUDY    68  68 100 NE8       29.87R
$$

OHZ036-037-039>041-045>050-054>059-063>069-073>076-082>088-281200-
  CENTRAL AND SOUTHEAST OHIO

CITY           SKY/WX    TMP DP  RH WIND       PRES   REMARKS
COLUMBUS       CLOUDY    70  69  97 N3        29.87R
OSU AIRPORT    CLOUDY    68  68 100 N6        29.87R FOG
BOLTON FIELD   NOT AVBL
RICKENBACK AFB CLOUDY    69  69 100 CALM      29.86S FOG
NEWARK         CLOUDY    71  68  90 N5        29.86R
MARION         CLOUDY    66  64  93 N6        29.90R FOG
LANCASTER      CLOUDY    70  69  97 N5        29.86R FOG
ZANESVILLE     CLOUDY    71  68  90 N3        29.85S FOG
NEW PHILLY     NOT AVBL
$$



USA.gov is the U.S. government's official web portal to all federal, state and local government web resources and services.